TimeCST,TemperatureF,Dew PointF,Humidity,Sea Level PressureIn,VisibilityMPH,Wind Direction,Wind SpeedMPH,Gust SpeedMPH,PrecipitationIn,Events,Conditions,WindDirDegrees,DateUTC
12:54 AM,21.9,14.0,72,30.26,10.0,West,3.5,-,N/A,,Clear,260,2012-11-12 06:54:00
1:54 AM,21.9,12.9,68,30.27,10.0,West,5.8,-,N/A,,Clear,280,2012-11-12 07:54:00
2:54 AM,23.0,12.9,65,30.28,10.0,West,9.2,-,N/A,,Clear,270,2012-11-12 08:54:00
3:54 AM,23.0,14.0,68,30.27,10.0,West,5.8,-,N/A,,Clear,260,2012-11-12 09:54:00
4:54 AM,21.9,12.9,68,30.29,10.0,WSW,5.8,-,N/A,,Clear,250,2012-11-12 10:54:00
5:54 AM,21.0,12.9,71,30.29,10.0,WSW,10.4,-,N/A,,Clear,250,2012-11-12 11:54:00
6:54 AM,21.9,14.0,72,30.30,10.0,WSW,9.2,-,N/A,,Clear,250,2012-11-12 12:54:00
7:54 AM,23.0,14.0,68,30.33,10.0,WSW,6.9,-,N/A,,Clear,250,2012-11-12 13:54:00
8:54 AM,28.9,16.0,58,30.34,10.0,West,9.2,-,N/A,,Clear,270,2012-11-12 14:54:00
9:54 AM,34.0,16.0,48,30.36,10.0,West,12.7,20.7,N/A,,Clear,280,2012-11-12 15:54:00
10:54 AM,37.0,16.0,42,30.36,10.0,WNW,18.4,-,N/A,,Clear,300,2012-11-12 16:54:00
11:54 AM,39.0,14.0,36,30.35,10.0,NW,20.7,-,N/A,,Clear,310,2012-11-12 17:54:00
12:54 PM,41.0,15.1,35,30.34,10.0,West,18.4,24.2,N/A,,Clear,280,2012-11-12 18:54:00
1:54 PM,42.1,12.9,31,30.34,10.0,WNW,19.6,-,N/A,,Clear,290,2012-11-12 19:54:00
2:54 PM,43.0,12.9,30,30.34,10.0,NW,13.8,20.7,N/A,,Clear,310,2012-11-12 20:54:00
3:54 PM,43.0,12.9,30,30.36,10.0,NW,17.3,-,N/A,,Clear,310,2012-11-12 21:54:00
4:54 PM,41.0,12.9,32,30.37,10.0,NW,5.8,-,N/A,,Clear,310,2012-11-12 22:54:00
5:54 PM,35.1,14.0,42,30.38,10.0,Calm,Calm,-,N/A,,Clear,0,2012-11-12 23:54:00
6:54 PM,32.0,15.1,50,30.39,10.0,Calm,Calm,-,N/A,,Clear,0,2012-11-13 00:54:00
7:54 PM,21.0,14.0,74,30.42,10.0,North,4.6,-,N/A,,Clear,360,2012-11-13 01:54:00
8:54 PM,23.0,14.0,68,30.43,10.0,Calm,Calm,-,N/A,,Clear,0,2012-11-13 02:54:00
9:54 PM,21.9,15.1,75,30.43,10.0,Calm,Calm,-,N/A,,Clear,0,2012-11-13 03:54:00
10:54 PM,19.0,12.9,77,30.43,10.0,Calm,Calm,-,N/A,,Clear,0,2012-11-13 04:54:00
11:54 PM,21.9,14.0,72,30.42,10.0,Calm,Calm,-,N/A,,Clear,0,2012-11-13 05:54:00